Tracking 33198 objects as of 13-Feb-2026
HD Live streaming from Space Station
objects crossing your sky now

STARLINK-32237

Track STARLINK-32237 now!
10-day predictions
STARLINK-32237 is classified as:


NORAD ID: 60443
Int'l Code: 2024-144U
Perigee: 481.3 km
Apogee: 483.6 km
Inclination: 53.2 °
Period: 94.1 minutes
Semi major axis: 6853 km
RCS: Unknown
Launch date: August 12, 2024
Source: United States (US)
Launch site: AIR FORCE EASTERN TEST RANGE (AFETR)
Your satellite tracking list
Your tracking list is empty




NASA's NSSDC Master Catalog

Two Line Element Set (TLE):
1 60443U 24144U   26044.07007218 -.00003334  00000-0 -10059-3 0  9996
2 60443  53.1616 331.2190 0001634 126.5075 233.6077 15.30169952 85541
Source of the keplerian elements: AFSPC